Temperature
13 13 13 13 13 13 12 12 12 12 12 12 11 11 11 11 11 11 11 11 11 11 11 11 10 10 10 10 10 11 10 10 10 10 10 10 10 10 10 10 11 10 10
12 12 12 12 12 12 12 12 12 12 11 11 11 11 11 11 11 11 11 11 11 11 10 10 10 10 10 10 10 10 10 10 10 10 10 10 10 10 10 10 10 10 10
12 12 12 12 12 12 12 12 11 11 11 11 11 10 10 10 10 10 10 10 10 10 10 10 10 10 10 9 9 9 9 10 10 10 9 9 9 9 9 9 9 9 9
12 12 12 12 11 11 11 11 11 11 11 11 10 10 10 10 10 10 10 10 10 10 10 10 10 9 9 9 9 9 9 9 9 9 9 9 9 9 9 9 9 9 9
11 11 11 11 11 11 11 11 11 11 11 10 10 10 10 10 9 9 9 9 9 9 9 9 9 9 9 9 9 9 9 9 8 8 8 8 8 8 8 8 8 8 8
11 11 11 11 11 10 10 10 10 10 10 10 10 10 10 9 9 9 9 9 9 9 9 9 9 9 9 9 8 8 8 8 8 8 8 7 7 7 7 7 7 7 8
10 10 10 10 10 10 10 10 10 10 10 10 9 9 9 9 9 9 9 9 9 9 8 8 8 8 8 8 8 8 8 8 8 7 7 7 7 7 7 7 7 7 7
10 10 10 10 10 10 10 10 10 9 9 9 9 9 9 9 9 9 8 8 8 8 8 8 8 8 8 8 8 8 7 7 7 7 7 7 7 6 6 6 7 6 6
10 10 9 9 9 9 9 9 9 9 9 9 9 9 8 8 8 8 8 8 8 8 8 8 8 7 7 7 7 7 7 7 7 7 6 6 6 6 6 6 6 6 6
9 9 9 9 9 9 9 9 9 9 9 9 8 8 8 8 8 8 8 8 8 8 7 7 7 7 7 7 7 6 6 6 6 6 6 6 6 5 5 5 5 5 5
9 9 9 9 9 8 8 8 8 8 8 8 8 8 8 8 7 7 7 7 7 7 7 7 7 7 7 6 6 6 6 6 6 6 6 5 5 5 5 5 5 5 5
8 8 8 8 8 8 8 8 8 8 8 8 8 7 7 7 7 7 6 7 7 7 7 7 6 6 6 6 6 5 5 5 5 5 5 5 5 5 5 5 5 4 4
8 8 8 8 8 8 7 7 7 7 7 7 7 7 7 7 7 6 6 6 6 6 6 6 6 6 5 5 5 5 5 5 5 5 5 4 4 4 4 4 4 4 4
8 8 7 7 7 7 7 7 7 7 7 7 7 7 6 6 6 6 6 5 5 5 5 6 6 5 5 5 5 4 4 4 4 4 4 4 4 4 4 4 4 4 3
7 7 7 7 7 7 7 7 7 6 6 6 6 6 6 6 6 6 5 5 4 4 4 5 5 5 4 4 4 4 4 4 4 3 3 3 4 4 4 3 3 3 3
7 7 7 7 7 7 7 6 6 6 6 6 6 6 6 6 5 5 5 5 4 4 3 4 4 4 4 4 4 3 3 3 3 3 3 3 3 3 3 3 3 3 3
7 7 6 6 6 6 6 6 6 6 6 6 5 5 5 5 5 5 5 4 4 4 3 4 4 4 3 3 3 3 3 3 3 3 3 3 3 2 2 2 2 2 2
6 6 6 6 6 6 6 6 6 5 5 5 5 5 5 5 5 4 4 4 4 3 3 3 4 3 3 3 3 3 2 2 2 2 2 2 2 2 2 2 2 2 2
6 6 6 6 6 5 5 5 5 5 5 5 5 5 4 4 4 4 4 4 3 3 3 2 3 2 2 2 2 2 2 2 2 2 2 2 1 1 1 1 1 1 1
6 6 5 5 5 5 5 5 5 5 5 4 4 4 4 4 4 4 3 3 3 2 2 2 2 2 2 2 1 2 2 2 2 1 1 1 1 1 1 1 1 1 1
5 5 5 5 5 5 5 5 4 4 4 4 4 4 4 3 3 3 3 2 2 2 2 1 1 1 1 1 1 1 1 1 1 1 1 1 1 1 0 0 0 0 0
5 5 5 5 4 4 4 4 4 4 4 3 3 3 3 3 3 2 2 2 2 1 1 1 1 1 1 0 -0 -0 -0 -1 -0 -0 -0 0 0 0 -0 -0 -0 -0 -1
5 4 4 4 4 4 4 3 3 3 3 3 3 3 3 2 2 2 2 1 1 1 1 0 0 0 -0 -0 -1 -1 -1 -1 -1 -1 -1 -1 -0 -0 -1 -1 -1 -1 -1
4 4 4 4 4 3 3 3 3 3 3 2 2 2 2 2 1 1 1 1 1 0 0 -0 -0 -0 -1 -1 -1 -2 -2 -2 -2 -2 -2 -2 -1 -1 -1 -1 -1 -2 -2
4 4 4 3 3 3 3 3 2 2 2 2 2 2 1 1 1 1 0 0 0 0 -0 -1 -1 -1 -1 -2 -2 -2 -2 -3 -3 -2 -2 -3 -2 -2 -2 -2 -2 -2 -3
3 3 3 3 3 3 2 2 2 2 2 2 1 1 1 0 0 0 -0 -0 -0 -0 -1 -1 -1 -1 -2 -2 -2 -3 -3 -3 -4 -4 -3 -4 -4 -4 -4 -3 -3 -3 -3
Wind_Speed
4 4 4 4 5 6 6 5 6 6 6 6 6 7 6 7 7 8 8 9 9 8 8 8 8 8 9 9 9 10 10 10 10 9 9 9 9 9 9 9 8 8 8
5 4 3 3 4 4 5 5 5 4 4 4 4 5 5 6 6 7 8 8 9 9 9 9 8 8 8 8 8 9 9 9 9 9 9 9 9 9 9 8 8 8 8
5 5 3 2 3 4 5 6 5 5 3 3 3 4 5 5 5 6 7 8 8 9 9 9 8 8 7 7 7 8 8 9 9 8 8 8 8 9 9 9 9 8 8
5 5 3 2 3 4 4 3 3 3 3 3 2 2 3 4 5 5 7 7 7 7 8 9 8 8 8 7 7 7 7 8 8 9 9 8 8 8 9 9 9 9 9
4 5 3 3 4 4 3 3 3 2 2 2 2 2 2 2 3 4 5 6 6 7 7 8 8 8 8 7 7 7 7 7 7 8 8 9 8 8 9 9 9 9 9
4 4 4 3 4 2 2 2 3 3 2 2 2 3 2 2 2 3 3 4 5 6 7 7 7 7 8 7 7 7 7 7 7 7 8 8 8 9 9 9 9 9 9
4 4 3 3 3 2 2 3 3 3 3 2 2 2 2 2 2 1 2 2 3 4 5 5 5 5 6 6 7 7 7 7 7 7 7 8 8 9 9 10 10 10 9
3 3 3 2 2 2 2 2 2 2 2 2 2 2 1 2 2 1 1 1 1 3 3 3 3 3 4 4 5 6 7 7 7 7 8 8 8 9 9 10 10 10 10
3 3 3 3 2 2 2 2 2 3 2 1 2 3 2 2 2 2 1 0 1 1 1 2 2 2 2 3 4 5 6 8 8 8 8 9 9 10 10 10 10 10 10
3 3 3 4 3 2 2 2 2 2 3 2 1 1 2 2 2 1 2 1 1 1 2 2 2 2 1 1 3 4 6 7 8 8 9 9 10 10 10 11 11 11 11
2 2 3 3 3 2 2 2 2 2 2 3 2 2 1 1 1 2 2 2 2 2 2 2 2 2 2 2 3 4 5 6 8 9 9 10 10 11 11 11 11 12 11
1 1 2 2 3 3 2 2 2 3 2 2 2 2 2 2 2 2 2 2 3 3 2 2 2 2 2 2 3 4 5 6 7 9 10 10 10 11 11 12 12 12 12
2 2 2 2 2 3 3 3 3 3 3 3 3 2 2 2 2 2 2 1 2 3 2 2 2 2 2 3 4 5 6 7 8 9 10 10 11 11 11 12 12 12 12
3 2 3 3 3 3 4 3 2 3 3 3 3 3 2 2 3 3 3 2 1 2 2 3 2 2 3 4 5 6 7 8 9 10 10 11 11 11 12 12 12 12 12
2 3 3 3 3 3 3 3 3 3 3 3 3 3 3 2 3 3 3 4 3 2 3 3 2 2 3 4 6 7 8 9 10 11 11 12 12 11 11 12 12 12 13
3 3 3 3 3 3 3 3 3 3 3 3 3 3 3 2 3 3 3 3 3 4 4 3 3 3 3 5 7 8 9 10 10 11 12 13 13 12 12 12 12 12 12
4 4 4 3 3 3 3 3 4 4 4 4 3 4 4 3 3 3 3 3 3 3 5 4 3 2 3 3 6 7 8 9 10 12 13 13 13 13 12 12 12 12 12
4 4 3 3 4 4 4 4 5 5 5 5 5 4 5 4 4 4 4 4 4 4 4 6 3 3 4 4 4 4 7 8 10 11 12 13 13 13 14 13 13 12 12
3 3 3 4 4 4 4 5 5 5 5 5 5 5 5 5 5 4 5 5 4 4 4 4 4 3 3 3 3 4 4 6 8 11 12 12 13 14 14 13 13 13 12
4 4 4 4 4 4 4 4 4 4 4 4 5 5 5 6 6 6 5 6 5 4 4 4 4 4 3 3 2 3 4 4 5 7 9 10 12 13 13 13 13 13 12
4 4 3 3 3 3 4 4 4 4 4 4 4 4 5 6 8 7 5 5 5 4 4 4 5 4 4 3 4 3 4 5 5 3 3 5 7 8 10 12 12 13 13
3 3 3 4 3 3 5 6 4 4 4 4 4 4 4 5 7 8 9 9 8 6 6 5 5 6 6 5 4 4 4 4 4 2 2 5 4 5 7 10 12 13 13
3 3 4 4 4 4 6 6 6 3 4 4 5 4 4 4 5 4 7 8 8 10 10 7 7 7 6 5 4 5 5 5 6 4 3 6 3 5 7 11 12 12 12
2 3 3 3 3 4 5 5 5 3 3 4 4 4 4 5 4 4 3 4 5 6 7 6 7 7 6 6 6 5 5 5 5 4 3 4 4 4 5 9 11 11 10
2 2 2 3 3 4 5 5 3 2 3 4 4 4 4 5 7 6 3 4 5 5 7 9 9 9 10 10 7 3 3 4 5 4 3 3 3 3 4 4 7 8 8
3 2 2 3 3 3 4 5 3 2 2 2 2 3 5 6 7 7 4 4 5 5 4 4 5 6 6 6 7 4 4 4 4 4 2 2 2 2 4 3 2 5 7
Wind_Direction
115 97 85 85 84 89 89 85 85 84 80 78 82 85 76 70 68 63 54 56 59 59 58 58 58 60 59 59 59 57 53 48 44 38 34 28 25 23 19 15 13 9 10
121 110 90 81 80 93 100 98 94 91 82 80 75 78 78 73 69 65 62 61 61 60 57 55 55 54 53 54 55 51 48 44 38 36 34 29 25 21 17 14 11 8 6
123 117 103 86 80 101 103 97 88 84 81 76 73 74 75 75 76 70 68 63 60 58 55 51 49 47 47 50 54 53 47 41 35 31 27 23 20 17 14 14 13 12 11
127 115 109 93 89 101 101 106 102 90 76 75 74 65 67 74 78 78 74 67 63 59 54 49 44 43 45 47 48 47 45 39 35 31 26 20 15 12 10 7 6 7 5
129 118 112 102 103 96 100 120 101 101 91 75 81 70 61 65 67 79 71 68 64 62 57 48 43 42 42 42 41 38 36 32 28 24 20 17 15 11 6 2 358 356 354
138 125 108 105 102 100 112 125 116 88 98 95 82 61 43 53 64 68 69 69 64 62 57 50 44 38 40 38 33 26 22 20 18 15 10 7 6 4 2 354 349 348 346
133 124 116 108 106 113 127 126 124 106 80 81 83 46 18 30 61 65 63 70 54 53 54 48 41 39 35 31 25 16 8 7 5 4 2 1 359 354 352 351 349 343 341
140 136 129 127 125 116 112 101 115 126 91 77 112 109 17 345 350 16 39 82 48 38 31 25 28 28 29 26 16 12 2 355 356 357 356 357 355 351 347 345 342 343 342
140 138 142 137 134 133 135 127 130 137 145 89 86 128 143 228 294 315 318 351 359 17 337 346 347 349 358 12 8 2 4 357 350 348 347 349 348 347 344 341 341 341 342
141 153 162 150 145 144 149 157 149 143 149 156 112 80 133 158 176 302 308 313 315 287 294 311 303 301 304 335 342 346 356 352 347 343 340 342 341 340 340 340 339 340 339
135 158 166 159 154 154 164 166 143 147 156 163 162 147 109 95 134 175 265 305 324 293 283 279 271 277 283 316 324 331 344 345 343 339 335 333 334 334 333 333 332 332 333
177 176 172 169 167 160 176 181 165 167 161 155 160 168 167 168 179 171 225 271 296 296 301 292 270 271 278 300 310 323 330 332 332 330 329 328 329 330 328 325 323 322 323
220 218 199 187 181 181 181 178 179 185 177 171 181 189 192 192 174 164 178 242 290 298 304 297 274 277 282 300 305 312 317 320 321 321 321 321 325 324 320 317 316 316 315
220 211 200 202 197 185 182 177 192 198 184 187 198 192 197 204 186 178 175 178 274 296 291 279 290 272 288 298 300 306 307 308 310 310 312 313 315 316 315 312 311 310 309
214 196 197 205 201 190 188 181 198 203 189 196 203 204 207 215 199 197 189 185 188 244 275 266 270 280 286 295 301 301 298 300 303 302 303 304 304 306 307 308 308 304 303
208 195 202 208 210 204 195 189 201 205 197 209 203 203 214 217 208 201 199 203 200 206 248 258 255 269 286 295 299 299 295 297 298 298 299 298 297 297 298 301 303 304 304
207 203 205 206 208 211 203 201 209 204 209 221 216 212 227 220 213 209 201 202 207 202 241 271 254 267 270 274 295 296 295 291 291 295 296 296 294 292 292 295 297 298 298
213 208 202 205 212 213 206 206 215 210 211 218 222 217 230 225 223 218 208 211 215 210 222 261 276 269 263 262 273 283 290 287 286 290 293 292 293 292 291 290 291 291 291
218 211 202 211 217 215 212 212 214 216 217 222 222 220 227 219 232 227 218 219 223 224 219 241 268 268 273 268 285 283 281 283 289 289 290 288 290 292 290 288 289 291 289
213 214 216 218 218 215 214 213 210 220 224 229 230 227 227 223 229 230 227 224 222 223 224 234 258 266 266 263 259 277 293 285 290 292 286 288 293 292 289 289 290 289 287
216 213 212 222 221 218 217 210 209 219 225 236 242 239 236 237 237 236 234 224 214 219 225 236 251 259 259 262 262 256 278 295 286 268 283 288 291 286 285 286 288 287 284
222 211 213 215 221 231 237 231 219 214 221 230 244 250 251 252 253 254 253 245 227 220 224 231 245 249 255 249 253 260 274 296 295 273 286 290 275 275 276 277 281 284 282
214 213 217 214 224 238 243 239 231 217 220 230 236 245 258 258 264 249 261 264 255 247 239 230 237 243 248 240 240 255 253 259 266 268 282 284 275 277 280 282 285 282 283
209 212 215 217 226 244 245 243 237 219 227 237 237 235 243 257 256 248 243 259 261 257 254 242 235 243 245 241 233 240 251 262 269 260 228 267 280 276 288 287 283 280 282
216 216 213 210 223 255 252 244 235 202 229 247 248 240 241 246 259 262 244 253 268 270 271 260 256 260 265 265 258 245 248 267 287 280 217 233 275 291 289 280 284 286 288
211 205 217 219 220 240 255 250 235 188 223 254 265 259 262 262 265 263 235 231 257 265 259 269 271 278 278 277 273 244 232 252 275 278 218 221 268 307 304 281 277 291 293
Height
1529 1530 1531 1531 1532 1533 1534 1535 1535 1536 1537 1538 1539 1539 1540 1540 1541 1541 1541 1541 1542 1542 1542 1542 1542 1541 1541 1541 1540 1539 1538 1538 1537 1537 1536 1536 1535 1534 1534 1533 1533 1532 1532
1528 1528 1529 1530 1531 1532 1533 1534 1535 1535 1536 1537 1538 1538 1539 1539 1540 1540 1540 1540 1541 1541 1541 1541 1541 1540 1540 1539 1539 1538 1537 1537 1536 1535 1535 1534 1533 1533 1532 1532 1531 1530 1530
1526 1527 1528 1529 1530 1531 1532 1533 1533 1534 1535 1536 1537 1537 1537 1538 1538 1539 1539 1539 1539 1539 1539 1539 1539 1539 1539 1538 1538 1537 1536 1535 1535 1534 1533 1532 1532 1531 1531 1530 1529 1529 1528
1525 1526 1527 1527 1529 1529 1530 1531 1532 1533 1534 1535 1535 1536 1536 1537 1537 1538 1538 1538 1538 1538 1538 1538 1538 1538 1537 1537 1536 1536 1535 1534 1533 1532 1531 1531 1530 1529 1529 1528 1527 1527 1526
1523 1525 1525 1526 1527 1528 1529 1530 1531 1532 1532 1533 1534 1534 1535 1536 1536 1536 1536 1537 1537 1537 1537 1537 1537 1536 1536 1535 1535 1534 1533 1532 1531 1531 1530 1529 1528 1527 1527 1526 1525 1524 1523
1522 1523 1524 1525 1526 1526 1527 1528 1529 1530 1531 1532 1532 1533 1533 1534 1534 1535 1535 1535 1535 1536 1536 1535 1535 1535 1534 1533 1533 1532 1532 1531 1530 1529 1528 1527 1526 1525 1524 1524 1523 1522 1521
1520 1521 1522 1523 1524 1525 1525 1526 1527 1528 1529 1530 1531 1531 1532 1532 1532 1533 1533 1534 1534 1534 1534 1534 1533 1533 1532 1531 1531 1530 1530 1529 1528 1527 1526 1525 1524 1523 1522 1521 1520 1519 1518
1518 1519 1520 1521 1522 1523 1523 1524 1525 1526 1526 1527 1528 1529 1530 1531 1530 1531 1531 1531 1532 1532 1532 1531 1531 1531 1530 1529 1529 1528 1527 1527 1526 1525 1524 1523 1522 1521 1519 1518 1517 1516 1515
1516 1516 1518 1519 1520 1521 1521 1522 1523 1523 1524 1525 1526 1527 1528 1527 1528 1529 1529 1529 1529 1529 1529 1529 1529 1528 1528 1527 1526 1526 1525 1524 1523 1522 1521 1520 1519 1518 1517 1516 1514 1513 1511
1513 1514 1516 1516 1517 1518 1519 1520 1521 1521 1522 1522 1523 1524 1526 1525 1526 1525 1526 1526 1526 1526 1526 1526 1526 1525 1525 1524 1524 1523 1522 1521 1520 1519 1518 1517 1516 1515 1514 1512 1511 1509 1508
1510 1511 1512 1513 1514 1515 1516 1517 1518 1519 1519 1519 1520 1521 1522 1522 1523 1523 1522 1522 1523 1523 1523 1523 1522 1522 1521 1521 1520 1520 1519 1518 1517 1516 1515 1514 1513 1512 1510 1509 1507 1506 1504
1507 1508 1509 1510 1511 1512 1513 1514 1515 1516 1517 1517 1518 1519 1519 1519 1520 1519 1519 1518 1519 1519 1519 1519 1519 1519 1518 1518 1517 1516 1516 1515 1514 1513 1512 1510 1509 1507 1506 1505 1503 1502 1500
1504 1505 1506 1507 1508 1509 1510 1511 1512 1513 1514 1514 1515 1515 1516 1516 1516 1516 1516 1516 1515 1515 1515 1516 1516 1515 1515 1514 1514 1513 1512 1511 1510 1509 1508 1506 1505 1503 1501 1500 1499 1497 1496
1502 1503 1504 1505 1505 1506 1507 1508 1509 1510 1511 1511 1512 1512 1513 1513 1513 1513 1513 1513 1512 1511 1511 1511 1512 1512 1511 1511 1510 1509 1508 1507 1506 1504 1503 1502 1500 1498 1497 1495 1494 1492 1491
1499 1500 1501 1501 1502 1503 1504 1505 1505 1506 1507 1508 1508 1509 1509 1509 1510 1509 1510 1510 1510 1507 1506 1506 1507 1507 1507 1507 1506 1505 1504 1502 1501 1500 1498 1497 1495 1494 1492 1491 1489 1487 1486
1496 1497 1498 1498 1499 1500 1500 1501 1502 1503 1503 1504 1504 1505 1505 1506 1506 1506 1506 1506 1506 1505 1503 1502 1503 1503 1503 1502 1501 1500 1499 1498 1496 1495 1493 1492 1490 1489 1487 1486 1484 1482 1481
1494 1494 1494 1495 1496 1496 1497 1497 1498 1498 1499 1500 1500 1501 1501 1501 1501 1502 1501 1501 1501 1500 1498 1497 1498 1498 1498 1497 1496 1495 1494 1492 1491 1490 1488 1486 1485 1483 1482 1480 1479 1477 1476
1490 1491 1491 1491 1492 1492 1493 1494 1494 1494 1495 1495 1496 1496 1496 1497 1497 1497 1496 1496 1496 1495 1494 1492 1492 1493 1492 1491 1490 1489 1489 1487 1486 1484 1482 1481 1479 1478 1476 1475 1473 1472 1470
1487 1487 1487 1488 1488 1488 1489 1489 1490 1490 1490 1491 1491 1491 1492 1492 1492 1492 1492 1491 1491 1490 1489 1488 1487 1487 1486 1486 1484 1483 1483 1481 1480 1478 1477 1475 1473 1472 1470 1469 1467 1466 1465
1483 1483 1483 1484 1484 1485 1485 1485 1485 1485 1486 1486 1486 1486 1487 1487 1487 1487 1486 1486 1485 1485 1484 1483 1482 1481 1480 1479 1478 1477 1475 1475 1474 1473 1471 1469 1468 1466 1465 1463 1462 1460 1459
1479 1479 1480 1480 1481 1481 1481 1480 1480 1481 1481 1481 1481 1481 1481 1481 1481 1481 1481 1480 1480 1479 1478 1477 1476 1475 1474 1473 1472 1471 1469 1468 1467 1466 1464 1463 1462 1460 1459 1457 1455 1454 1453
1475 1475 1475 1476 1476 1476 1476 1476 1476 1476 1476 1476 1476 1476 1476 1476 1476 1476 1476 1475 1475 1474 1472 1472 1470 1469 1468 1468 1467 1465 1464 1462 1460 1460 1458 1456 1456 1454 1453 1451 1449 1448 1446
1471 1471 1471 1472 1472 1472 1472 1472 1472 1472 1472 1472 1472 1471 1471 1471 1471 1471 1470 1470 1469 1468 1468 1467 1465 1464 1463 1462 1461 1460 1459 1457 1455 1454 1452 1449 1449 1448 1447 1445 1443 1442 1440
1466 1466 1467 1467 1467 1468 1468 1468 1468 1468 1468 1468 1467 1467 1466 1466 1465 1465 1464 1463 1463 1462 1462 1461 1460 1459 1458 1457 1456 1455 1453 1451 1450 1449 1447 1443 1442 1441 1440 1438 1437 1436 1435
1462 1462 1463 1463 1463 1463 1464 1464 1463 1463 1463 1463 1462 1462 1461 1460 1460 1459 1458 1457 1457 1456 1456 1455 1454 1453 1452 1451 1451 1449 1448 1446 1443 1442 1441 1439 1436 1434 1433 1432 1431 1430 1429
1459 1459 1459 1459 1459 1459 1459 1459 1459 1458 1458 1457 1457 1456 1456 1455 1454 1454 1453 1452 1451 1451 1450 1449 1448 1448 1447 1446 1445 1444 1443 1441 1438 1436 1435 1435 1432 1430 1427 1425 1426 1425 1424